Вернуться в каталог

MANGARO-II-Piscus

MAGNARO-II

АктивенЛюбительское радиоSSO
NORAD 68798·PAYLOAD·🇯🇵 Japan

Запущен Apr 23, 2026 с Rocket Lab Launch Complex 1

Loading…

Ближайшие Пролёты (ближайшие 24 часа)

TLE

СвежийSource: AMSAT

Эпоха: Sep 14, 2026, 03:12 UTC

1 68798U 26088G   26257.13334494  .00002652  00000-0  16954-3 0  9998
2 68798  97.5200  44.6873 0019965 133.2204 227.0696 15.09323781 21712

Отслеживайте MANGARO-II-Piscus в реальном времени с AllMySat

Download on the App Store